STARLINK-1080, 44961

Orbit data source: Space-Track

STARLINK-1080, 44961 is a payload satellite owned by SpaceX/Seattle (US) in LEO that was launched on Tue, 07 Jan 2020 UTC via an FALCON 9 launch vehicle from the Air Force Eastern Test Range (AFETR). Payloads include a variety of satellites, spacecraft, and rockets equipped with specific instruments for various scientific and technological missions. These include communications satellites like Starlink; space stations such as the ISS; scientific satellites like the Hubble; Earth observation satellites from companies like Planet Labs, Umbra, and HawkEye 360; GPS; miniature CubeSats for education and research; and military/defense satellites.

Loading next visibility...
STARLINK-1080 details
Identifier
44961, 2020-001AZ
Orbit
LEO
Last TLE update9 hours ago
Origin
Flag of USSpaceX/Seattle (US)
ManufacturerSpaceX/Seattle
MissionOperational Commercial Communications
Bus & MotorSTARLINK, Unknown motor
Mass260 kg wet, ~248 kg dry
Launch date (UTC)
2020-01-07 (5 years ago)
Launch vehicle
FALCON 9
Launch site
Air Force Eastern Test Range (AFETR)
Object type
Payload
Rocket body
Debris
Shape & HBRBox + 1 Pan, 8.86 m
Radar Cross Section13.562 m², Large (>1 m²)

Expand to show TLE details & history

TLE from 9 hours ago
0 STARLINK-1080
1 44961U 20001AZ  24346.54083569  .00001145  00000-0  95730-4 0  9995
2 44961  53.0545 180.8781 0001573  89.8125 270.3044 15.06396446272117
Epoch: 2024-12-11T12:58Z
Definitive object data (Epoch: 2024-12-11T12:58:48.203Z)
Latitude-0.00005°
Longitude-94.55683°
Altitude548.096 km
Speed7.589 km/s
True Right ascension12h 03m 30s
True Declination0° 00' 00"
Sunlit
Object was in daylight at TLE epoch
Visualization TLE readout
Latitude-34.22293°
Longitude114.34814°
Altitude558.77 km
Speed7.582 km/s
Apparent Right ascension04h 49m 42s
Apparent Declination-47° 50' 13"
Sunlit
Object is in daylight
Visualization observer readout
Local Sidereal Time20:19:57
Azimuth119.917° SE
Elevation-52.055°
Doppler factor1
Orbital elements
Apogee altitude548.583 km
Perigee altitude546.404 km
Semi-major axis6,925.63 km
Eccentricity0.0001573
Inclination53.0545°
RAAN180.8781°
Arg. of periapsis89.8125°
True anomaly270.28637°
Mean anomaly270.3044°
Eccentric anomaly270.29539°
Mean motion3.76577 °/min
BSTAR0.00009573
Orbital period95.6 mins
Loading maneuver chart data...

STARLINK-1080 Visibility forecast

Observer location: undefined°, undefined

Span
Click to sort rows by Start time (UTC) header in descending order
Start Az.
Max El. time (UTC)
Max El. Az.
Max El.
End time (UTC)
End Az.
8 mins2024-12-11 23:02:01.542Z306.717° NW2024-12-11 23:06:01.542Z215.912° SW44.043°2024-12-11 23:10:01.542Z137.085° SSE
4 mins2024-12-12 14:37:01.542Z163.451° S2024-12-12 14:39:01.542Z126.542° SE19.192°2024-12-12 14:41:01.542Z90.739° ESE
6 mins2024-12-12 16:16:01.542Z255.005° W2024-12-12 16:18:01.542Z314.747° NW39.47°2024-12-12 16:22:01.542Z42.906° NE
4 mins2024-12-12 17:57:01.542Z319.611° NNW2024-12-12 17:58:01.542Z336.81° NNW16.167°2024-12-12 18:01:01.542Z24.64° NE
5 mins2024-12-12 21:18:01.542Z344.547° N2024-12-12 21:20:01.542Z29.161° NE24.679°2024-12-12 21:23:01.542Z82.866° E
|